Regional Weather Roundup
Issued by NWS

Home | Current Version | Previous Version | Text Only | Print | Product List | Glossary On
Versions: 1 2 3 4 5 6 7 8 9 10 11 12 13 14 15 16 17 18 19 20 21 22 23 24 25 26 27 28 29 30 31 32 33 34 35 36 37 38 39 40 41 42 43 44 45 46 47 48 49 50
000
ASUS46 KPQR 271910
RWROR

OREGON REGIONAL WEATHER ROUNDUP
NATIONAL WEATHER SERVICE PORTLAND OR
1100 AM PST THU NOV 27 2014

NOTE: "FAIR" INDICATES FEW OR NO CLOUDS BELOW 12,000 FEET WITH
NO SIGNIFICANT WEATHER AND/OR OBSTRUCTIONS TO VISIBILITY.

ORZ001>013-272000-
NORTHWEST OREGON


CITY           SKY/WX    TMP DP  RH WIND       PRES   REMARKS
ASTORIA        LGT RAIN  56  54  93 S16G30    29.88S FOG
NEWPORT        DRIZZLE   54  52  94 S13       30.01R
PORTLAND       CLOUDY    57  50  77 S13G22    29.97F
VANCOUVER WA   LGT RAIN  56  48  74 S10G16    29.97S
SCAPPOOSE      LGT RAIN  55  50  83 E8        29.95S
HILLSBORO      CLOUDY    56  49  77 S14G24    29.96S
AURORA         CLOUDY    54  50  86 S10G21    29.99F
MCMINNVILLE    CLOUDY    56  49  77 S22G29    29.99S
SALEM          CLOUDY    54  51  90 S9        29.99F
CORVALLIS      CLOUDY    54  50  87 S13       30.02F
EUGENE         LGT RAIN  53  50  89 S8        30.04S FOG
$$

ORZ021-028-272000-
SOUTHWEST OREGON


CITY           SKY/WX    TMP DP  RH WIND       PRES   REMARKS
NORTH BEND     CLOUDY    54  54 100 E3        30.03F
BROOKINGS      CLOUDY    59  53  80 SE13      30.07F
ROSEBURG       LGT RAIN  53  50  89 CALM      30.05R
SEXTON SUMMIT  CLOUDY    50  28  42 S13G21    30.06R
MEDFORD        PTSUNNY   50  47  89 NW3       30.07F
$$

ORZ014>016-041-272000-
COLUMBIA GORGE


CITY           SKY/WX    TMP DP  RH WIND       PRES   REMARKS
TROUTDALE      CLOUDY    58  48  69 SW13G23   29.97F
THE DALLES     CLOUDY    54  47  77 CALM      29.93F
$$

ORZ029>031-041-044-049-050-061>064-502-503-505>511-272000-
EASTERN OREGON


CITY           SKY/WX    TMP DP  RH WIND       PRES   REMARKS
REDMOND        CLOUDY    51  42  71 SW15G25   30.03R
BEND           CLOUDY    50  39  66 SW23G37   30.04F
PRINEVILLE     CLOUDY    54  41  62 S15G28    30.05S
KLAMATH FALLS  PTSUNNY   50  36  58 S7        30.15F
LAKEVIEW       PTSUNNY   48  28  46 SE10      30.20S
HERMISTON      CLOUDY    56  44  64 SW6       29.91F
PENDLETON      CLOUDY    59  40  49 W13       29.92F
JOHN DAY       CLOUDY    55  37  50 S23G44    30.08S
MEACHAM        LGT RAIN  51  41  68 CALM      29.99F
LA GRANDE      CLOUDY    54  34  47 S10       30.02F
BAKER CITY     CLOUDY    51  37  58 E14       30.05F
BURNS          RAIN      41  38  89 N5        30.16F
ROME             N/A     64  21  19 S12       30.14F
ONTARIO        CLOUDY    44  40  85 W3        30.15F
$$


USA.gov is the U.S. government's official web portal to all federal, state and local government web resources and services.